QUETZSAT 1

Last updated on Thu Nov 21 2024 00:02:41 GMT+0000 (Coordinated Universal Time)

1 37826U 11054A 24325.28003097 -.00000240 00000+0 00000+0 0 9997 2 37826 0.0140 343.2957 0002774 281.5259 178.7895 1.00270182 44136
UTC large
Height (km)
Speed (km/s)
/
Latitude / Longitude
Inclination (degrees)
Orbital Period (minutes)
Azimuth
Elevation
Range (km)
Doppler Factor

Next 0 passes for location: London (51.5072 / 0.1276)

Sorry there are no passes over London.